Погода в Слуцке

Погода в Слуцке : погода сейчас, прогноз погоды и архив. Всё, что Вы хотите узнать о погоде в Слуцке!

Хотите узнать прогноз погоды в Слуцке? Тогда Вам сюда: Погода в Слуцке

Поиск расширенной информации на нашем сайте:

Другие новости

Новости СМИ2

Главная страница сайта

Новости сайта

02.10.2013

Напоминаем, что на нашем новом сайте вы можете получить высокодетализированные прогнозы погоды по пунктам России, СНГ и мира (включающие важные для авиации метеовеличины, такие как направление и скорость ветра, видимость, явления погоды, количество и форма облачности, нижняя и верхняя граница облачности), а также ознакомиться с разнообразными материалами по авиационной метеорологии и подборкой полезных ссылок на эту тему.

Сайт Метеоцентр.Азия посвящён разработке технологий оптимизации авиаметеорологического обслуживания, включая проектирование и перспективное создание нескольких автоматизированных авиаметеорологических систем:
- система выпуска высокодетальных прогностических карт явлений погоды для нижнего воздушного пространства по России и ближнему зарубежью;
- система верификации прогнозов TAF (выпускаемых синоптиками официальных АМСГ РФ и ближнего зарубежья) и AUTOTAF (выпускаемых сайтом Метеоцентр.Азия) - выявление ошибок, онлайн-сопоставление с фактической погодой METAR, автоматическое внесение коррективов в прогнозы при резком отклонении фактической погоды от прогноза, подсчёт оправдываемости прогнозов по элементам и в целом;
- система обработки, анализа и отображения авиаметеорологической информации для применения провайдерами метеорологической информации.


Погода в Слуцке - сегодня

Время (UTC), дата Ветер
(°,м/с) 
Видим.   Явления Облачность Т
(°С)
Тd
(°С)
f(%) Тe
(°С)
Pmin
(гПа)
dP
(гПа)
Po
(мм)
O2
(г/м3)
Тmin Tmax R s Состояние
почвы
21 23.05.16 120 (ЮВ) 14000 м    5/5 600 м 
[Sc]
+15.2 +7.8 61 +16  1014  746  283           
00 24.05.16 010 (С) 14000 м    8/0 средняя 
[Ac und]
+11.2 +8.8 85 +12  1013.9  -0.4  746  287           
03 24.05.16 тихо ()   15000 м    9/0 средняя 
[Ac und]
+11.4 +8 80 +11  1013.3  -0.6  745  287           
06 24.05.16 050 (СВ) 20000 м    1/0 средняя 
[Ac trans]
+18.3 +9.7 57 +21  1012.1  -0.7  745  280  +9.4         
09 24.05.16 070 (В) 25000 м    9/6 600 м средняя 
[Cu med, cong|Ac trans]
+20.5 +7.7 44 +21  1010.7  -1.1  744  278           
12 24.05.16 050 (СВ) 25000 м    9/6 600 м кучево-дожд., средняя 
[Cb cap|Ac trans]
+21.1 +8.6 45 +21  1009.1  -1.6  743  276           
15 24.05.16 010 (С) 4{10}  20000 м    9/8 300 м кучево-дожд., средняя 
[Cb cap|Ac cuf]
+15.3 +10.6 74 +17  1009.3  -0.2  743  281           
18 24.05.16 060 (СВ) 16000 м  в посл. час ливневой дождь  6/3 600 м средняя, верхняя 
[Sc|Ac trans|Ci sp]
+15 +13.2 89 +22  1008.4  -0.9  742  281    +22.3  0.5     
21 24.05.16 070 (В) 10 км    4/3 600 м средняя 
[Sc|Ac trans]
+11.2 +10.6 96 +14  1008.7  742  285           
00 25.05.16 070 (В) 13000 м    3/0 средняя 
[Ac lent]
+10.2 +9.2 94 +10  1008.1  -0.6  742  286           
03 25.05.16 060 (СВ) 5000 м  дымка  4/0 верхняя 
[Cc]
+8 +7.8 99 +9  1008.2  742  289           
06 25.05.16 тихо ()   12000 м    4/0 средняя 
[Ac trans]
+13.5 +11.4 87 +17  1007.9  742  283  +7.7         
09 25.05.16 140 (ЮВ) 16000 м    8/3 600 м кучево-дожд., средняя, верхняя 
[Cb cap|Ac trans|Cc]
+18.7 +11.4 62 +23  1007.7  0.1  742  278           
12 25.05.16 010 (С) 6-10  18000 м    9/6 600 м кучево-дожд., верхняя 
[Cb cap|Ci sp]
+20 +9.8 52 +21  1007.4  -0.1  742  277           
15 25.05.16 090 (В) 1{10}  20000 м    5/1 600 м кучево-дожд., средняя, верхняя 
[Cb cap|Ac trans|Ci sp]
+18.3 +9.8 58 +21  1007.7  0.1  742  278           
18 25.05.16 тихо ()   18000 м    5/3 600 м верхняя 
[Sc diur, vesp|Ci fib]
+17 +11.5 70 +20  1007.9  0.1  742  279    +20.8       
21 25.05.16 330 (СЗ) 15000 м    1/1 600 м 
[Sc diur, vesp]
+12.3 +10.7 90 +16  1009.4  1.2  743  284           
00 26.05.16 030 (СВ) 12000 м    ясно 
+10 +9.4 96 +12  1009.8  0.3  743  287           
03 26.05.16 320 (СЗ) 7000 м  дымка  3/0 верхняя 
[Ci sp]
+9.4 +8.8 96 +10  1010.8  0.9  743  288           
06 26.05.16 360 (С) 15000 м    1/0 верхняя 
[Ci sp]
+16.7 +12.4 76 +23  1011.8  1.4  745  280  +8.1         
09 26.05.16 360 (С) 16000 м    6/5 600 м верхняя 
[Cu med, cong|Ci fib]
+20.2 +12.2 60 +25  1012.1  0.6  745  277           
12 26.05.16 320 (СЗ) 20000 м    6/6 600 м 
[Cu med, cong]
+22.6 +12.2 52 +27  1012.2  0.2  745  275           
15 26.05.16 360 (С) 18000 м    6/6 600 м 
[Cu med, cong]
+21.1 +12.4 58 +26  1012.4  0.1  745  276           
18 26.05.16 100 (В) 16000 м    4/1 600 м средняя 
[Sc|Ac trans]
+20.4 +12.8 62 +26  1013.6  1.2  746  277    +23.6       
21 26.05.16 030 (СВ) 15000 м    1/0 средняя 
[Ac lent]
+15.1 +12 82 +20  1015.2  1.2  747  283           
Время (UTC), дата Ветер
(°,м/с) 
Видим.   Явления Облачность Т
(°С)
Тd
(°С)
f(%) Тe
(°С)
Pmin
(гПа)
dP
(гПа)
Po
(мм)
O2
(г/м3)
Тmin Tmax R s Состояние
почвы

Для получения пояснительной информации подведите курсор к названию столбца.

ПОГОДА в Слуцке - архив

Всё, что Вы хотите узнать о погоде в Слуцке - удобно и подробно!

Выберите нужную дату (начиная с 1 января 2015* года) и нажмите кнопку "Найти".
Будут отображены архивные сводки погоды по пункту Слуцк, начиная с указанной даты.


Отображать данные в формате CSV (для использования в таблицах Excel)


Внимание! Наш архив погоды предназначен исключительно для личного некоммерческого использования в познавательных целях. Если Вам необходимы официальные справки о состоянии погоды (для производственных, юридических, коммерческих и т.п. целей), обращайтесь в органы Росгидромета.

*Примечание: данная дата относится к архиву по метеостанциям СССР (Россия, СНГ, Балтия).
Архив по метеостанциям Зарубежной Европы и Азии (кроме Китая) хранится 10 дней, по другим регионам земного шара (Китай, Африка, Америка, Австралия, Океания) - 1 день.

Слуцк - район местоположения метеостанции


Название, широта, долгота, высота метеостанции:
Слуцк 53°ш. 27.6°д. 162 м над ур. моря [Беларусь]

Дополнительная информация

В oтличие oт бoльшинства пoгoдных сайтoв мы публикуем пoдрoбную метеoинфoрмацию в детальнoм прoфессиoнальнoм фoрмате.

Характеристики температуры и влажнoсти вoздуха измеряются на высoте 2 м в тени вдали oт зданий и деревьев.
Скoрoсть ветра измеряется на высoте 10 м (на урoвне рoста челoвека скoрoсть ветра ниже в 1.5-2 раза). Если метеoстанция нахoдится в гoрoде или в лесу, тo скoрoсть ветра занижена на 2-4 м/с пo сравнению с oткрытым местoм. Скoрoсть ветра над акватoриями крупных рек и oзёр, а также на вершинах хoлмoв на 2-5 м/с выше, чем в oбычных услoвиях.
Атмoсфернoе давление в разных тoчках местнoсти мoжет значительнo oтличаться oт давления на метеoстанции, в зависимoсти oт услoвий рельефа (при пoдъёме на 10 м давление пoнижается примернo на 1 мм рт.ст.).